Date,TemperatureHighF,TemperatureAvgF,TemperatureLowF,DewpointHighF,DewpointAvgF,DewpointLowF,HumidityHigh,HumidityAvg,HumidityLow,PressureMaxIn,PressureMinIn,WindSpeedMaxMPH,WindSpeedAvgMPH,GustSpeedMaxMPH,PrecipitationSumIn
2013-1-1,44,41,38,43,35,24,97,80,51,30.18,30.02,0,0,0,0.43
2013-1-2,44,40,37,43,36,33,97,87,77,30.21,29.97,0,0,0,0.05
2013-1-3,40,37,33,38,33,26,97,86,67,30.34,30.15,0,0,0,0.00
2013-1-5,28,28,28,20,20,19,70,70,70,30.42,30.41,0,0,0,0.00
2013-1-6,48,40,36,36,32,29,75,71,62,30.28,30.11,0,0,0,0.00
2013-1-7,38,36,33,30,28,26,76,74,72,30.34,30.27,0,0,0,0.00
2013-1-8,41,38,36,37,35,33,90,87,81,30.50,30.47,0,0,0,0.00
2013-1-9,50,47,41,48,44,37,92,89,86,30.52,30.47,0,0,0,0.00
2013-1-10,49,46,43,47,44,41,96,94,90,30.51,30.49,0,0,0,0.00
2013-1-15,51,48,44,50,47,44,98,97,97,30.16,30.08,5,2,7,0.64
2013-1-18,48,41,32,30,24,18,89,55,31,30.56,30.52,2,0,4,0.00
2013-1-19,50,36,23,30,26,22,96,72,41,30.53,30.37,6,1,9,0.00
2013-1-31,41,40,36,19,17,16,50,40,36,30.05,29.99,11,6,17,0.01
2013-2-2,42,33,19,32,23,7,87,68,34,30.45,30.15,8,2,11,0.00
2013-2-3,43,41,37,24,23,21,55,49,42,30.04,29.96,15,9,22,0.00
2013-2-4,45,45,44,23,23,22,43,42,40,30.07,30.06,4,3,5,0.00
2013-2-5,54,42,33,32,30,27,85,64,36,30.06,29.98,0,0,2,0.00
2013-2-6,40,34,30,33,30,27,93,84,73,30.21,30.06,7,1,9,0.00
2013-2-10,47,40,34,41,31,21,96,72,44,30.47,30.22,9,2,13,0.39
2013-2-11,60,52,43,54,46,30,97,81,37,30.23,30.01,11,2,16,0.07
2013-2-14,50,50,50,32,32,32,50,49,49,30.04,30.03,2,2,2,0.00
2013-2-16,32,32,32,26,26,26,79,79,78,30.00,29.99,4,3,9,0.00
2013-2-18,51,41,19,24,20,15,82,45,34,30.46,30.32,10,4,16,0.00
2013-2-25,43,37,32,30,28,26,92,68,51,30.13,30.08,9,6,15,0.01
2013-2-26,35,32,31,34,31,29,95,94,92,30.10,29.75,9,2,11,1.37
2013-2-27,57,48,37,37,32,24,87,56,36,29.83,29.77,9,4,16,0.00
2013-2-28,41,36,32,34,26,22,89,67,48,29.97,29.76,12,6,17,0.00
2013-3-1,38,33,31,28,26,24,83,78,66,30.01,29.94,10,6,19,0.00
2013-3-3,32,27,24,17,15,12,67,58,50,30.11,30.03,18,12,28,0.00
2013-3-4,51,36,24,28,17,13,69,49,23,30.25,30.10,14,5,22,0.00
2013-3-5,38,36,34,28,26,24,75,69,58,30.14,30.06,1,0,2,0.00
2013-3-21,36,32,29,12,11,10,47,40,34,30.05,29.92,12,6,18,0.00
2013-3-22,29,27,25,11,11,10,54,51,47,30.09,30.05,6,3,9,0.00
2013-3-26,37,33,30,25,24,21,81,69,55,30.28,30.15,13,7,19,0.00
2013-4-1,63,61,56,41,37,35,56,42,37,29.95,29.93,12,8,18,0.00
2013-4-10,67,65,64,55,55,54,72,69,64,29.97,29.96,2,1,15,0.00
2013-4-11,74,65,58,63,57,51,91,75,56,29.98,29.69,13,4,23,0.27
2013-4-12,74,63,53,63,50,36,94,66,36,29.86,29.62,13,6,19,0.95
2013-4-13,70,58,48,41,35,26,67,46,21,30.07,29.84,11,6,18,0.00
2013-4-14,68,55,40,49,41,36,88,64,34,30.14,30.01,13,3,15,0.01
2013-4-15,62,56,51,55,52,48,97,89,77,30.24,30.00,8,2,11,0.21
2013-4-16,56,55,55,54,53,53,94,93,92,30.24,30.23,1,0,3,0.00
2013-4-23,68,62,50,47,45,41,84,54,38,30.18,30.15,8,3,14,0.00
2013-4-24,71,58,42,56,49,41,94,75,52,30.18,30.03,11,2,15,0.00
2013-4-25,65,49,41,46,36,15,82,65,15,30.28,30.11,12,7,20,0.00
2013-5-5,49,48,47,48,47,46,97,96,95,29.90,29.87,7,1,13,2.51
2013-5-6,60,53,49,52,49,42,98,88,54,29.92,29.83,9,4,15,0.01
2013-5-8,69,61,47,55,53,46,98,76,58,30.08,30.00,6,1,16,0.00
2013-5-9,72,58,49,58,53,48,98,85,55,30.14,30.05,6,1,8,0.03
2013-5-10,78,64,51,60,55,50,97,75,47,30.13,29.97,7,1,18,0.00
2013-5-11,75,65,57,61,57,52,95,76,55,29.99,29.81,12,1,13,0.15
2013-5-12,62,56,49,54,41,30,88,61,35,30.10,29.89,13,6,23,0.00
2013-5-13,61,51,40,37,31,25,80,48,26,30.25,30.10,9,4,16,0.00
2013-5-14,64,44,36,40,36,33,90,75,35,30.31,30.24,3,0,6,0.00
2013-5-15,86,73,60,63,60,57,90,66,41,30.04,29.97,6,1,10,0.00
2013-5-16,78,66,52,60,55,50,94,70,42,30.07,29.98,5,1,10,0.00
2013-5-17,79,66,54,61,57,52,95,73,47,30.12,30.03,7,2,13,0.00
2013-5-18,69,63,60,63,60,57,97,89,77,30.12,30.06,8,1,9,0.94
2013-5-19,72,66,61,66,62,60,98,89,73,30.12,30.01,8,1,13,0.06
2013-5-20,78,67,60,67,63,59,98,86,68,30.13,30.04,9,1,12,0.00
2013-5-21,84,68,58,67,62,58,98,81,48,30.08,29.95,8,1,13,0.01
2013-5-22,81,68,59,69,63,58,96,85,60,30.02,29.87,11,2,20,0.37
2013-5-23,79,68,61,63,59,53,98,76,46,29.96,29.85,12,2,18,0.01
2013-5-24,64,60,53,53,42,34,77,53,34,30.26,29.91,15,8,23,0.00
2013-5-25,74,59,44,42,36,26,84,47,20,30.37,30.22,12,4,17,0.00
2013-5-26,54,53,52,46,42,41,77,67,61,30.28,30.21,1,0,5,0.00
2013-5-29,76,69,62,61,60,58,89,72,55,30.22,30.17,7,2,13,0.00
2013-5-30,77,64,57,64,59,55,96,83,56,30.28,30.19,7,1,12,0.00
2013-6-10,78,73,68,65,63,59,87,73,55,29.97,29.90,4,1,13,0.96
2013-6-11,82,72,62,64,62,60,95,73,50,30.03,29.94,11,2,14,0.00
2013-6-12,88,70,62,72,64,60,95,83,55,30.04,29.99,5,1,8,0.00
2013-6-13,90,79,68,68,64,60,81,62,38,29.82,29.70,10,3,18,0.00
2013-6-14,76,69,60,62,55,51,87,61,44,30.07,29.81,12,5,20,0.00
2013-6-15,80,67,53,62,57,51,95,73,46,30.17,30.07,7,1,11,0.00
2013-6-16,80,70,58,65,61,56,94,74,50,30.16,30.03,7,1,13,0.00
2013-6-17,74,69,66,66,65,64,96,87,77,30.05,29.96,3,0,6,0.41
2013-6-18,83,70,65,69,65,60,97,84,59,29.97,29.81,8,2,12,0.02
2013-6-19,76,69,63,65,62,59,92,78,62,30.13,29.93,8,2,12,0.00
2013-6-20,76,68,60,66,62,59,96,84,64,30.25,30.12,8,2,15,0.00
2013-6-21,78,69,60,64,61,58,98,78,53,30.29,30.19,6,1,10,0.00
2013-6-22,63,60,58,60,59,56,96,94,90,30.25,30.21,1,0,2,0.01
2013-6-26,76,72,68,71,68,66,95,87,80,29.97,29.93,4,0,4,0.02
2013-6-27,83,69,65,71,66,63,94,89,63,29.97,29.84,6,1,10,0.10
2013-7-2,78,72,68,70,68,65,94,85,69,30.15,30.02,7,3,12,0.26
2013-7-3,75,68,62,71,66,61,97,95,86,30.24,30.10,7,1,15,1.66
2013-7-4,72,66,62,70,65,61,98,96,89,30.25,30.16,7,1,12,1.58
2013-7-5,81,70,66,68,66,64,97,88,61,30.26,30.18,13,2,26,0.34
2013-7-6,79,71,66,70,68,65,98,90,68,30.23,30.12,8,2,16,1.14
2013-7-7,81,73,67,70,68,66,98,85,66,30.17,30.08,7,1,16,0.16
2013-7-8,83,73,68,71,67,65,96,83,56,30.20,30.11,7,2,10,0.09
2013-7-9,85,76,67,72,69,65,97,80,54,30.18,30.06,8,1,12,0.01
2013-7-10,83,72,66,72,68,65,97,88,67,30.14,29.96,9,1,12,0.48
2013-7-11,79,71,66,71,67,65,97,89,72,29.99,29.89,3,0,6,0.00
2013-7-12,80,70,64,69,66,61,97,87,64,30.02,29.89,7,1,10,0.32
2013-7-13,73,67,62,67,64,60,97,90,79,30.14,30.02,6,2,11,0.03
2013-7-14,72,68,65,69,67,63,98,94,83,30.30,30.11,9,2,19,1.03
2013-7-15,80,72,65,70,67,64,99,85,64,30.35,30.28,7,2,11,0.00
2013-7-16,70,68,65,68,66,64,97,95,92,30.33,30.31,0,0,2,0.01
2013-7-21,68,68,68,67,67,67,97,97,96,30.02,29.99,0,0,1,0.87
2013-7-22,82,72,66,72,68,65,97,87,64,30.02,29.85,7,1,12,0.27
2013-7-23,84,72,64,68,65,62,96,82,52,29.91,29.83,7,2,12,0.00
2013-7-26,79,74,69,68,67,66,93,79,65,30.05,30.03,6,2,11,0.13
2013-7-27,78,70,65,71,67,64,98,91,73,30.06,29.89,5,1,14,1.87
2013-7-28,83,72,64,70,65,62,98,81,51,30.04,29.92,5,0,10,0.00
2013-7-29,66,63,61,62,60,59,94,90,85,30.10,30.03,2,0,6,0.00
2013-8-12,82,72,69,72,68,66,95,88,68,30.06,29.99,11,2,17,0.18
2013-8-13,76,76,76,67,67,67,74,74,74,29.85,29.85,6,6,6,0.00